Simultaneous Nadir Overpasses (SNOs) Predictions

Prediction of SNOs between GOES-16 and NOAA-19 Satellite Orbit:

Table of predicted SNOs for the next 14.0 days since TLE Epoch: 4/13/2017
Index Date Time (GOES-16) GOES-16 Lat,Lon NOAA-19 Lat,Lon Distance(km) Time Diff (sec)
1 04/15/2017 09:19:52 0.01, -89.50 0.60, -91.92 276.98 80
2 04/16/2017 09:05:46 0.02, -89.50 -0.09, -89.15 41.21 80
3 04/17/2017 08:54:20 0.02, -89.51 -0.72, -86.36 359.30 80
4 04/19/2017 21:16:07 -0.02, -89.48 -0.48, -91.55 235.11 80
5 04/20/2017 21:07:20 -0.02, -89.49 0.15, -88.76 83.36 80
6 04/21/2017 20:55:54 -0.02, -89.50 0.79, -85.97 401.94 80
7 04/23/2017 09:28:48 0.02, -89.54 1.03, -93.87 494.36 80
8 04/24/2017 09:17:21 0.02, -89.55 0.40, -91.08 175.84 80
9 04/25/2017 09:03:16 0.02, -89.55 -0.29, -88.31 142.74 80
10 04/26/2017 08:51:50 0.01, -89.56 -0.93, -85.52 461.16 80




NCC Satellite Simultaneous Nadir Overpasses (SNOs) Prediction Service
